User: anonymous   Login
Location: SAPM � Hemmingford
(45.0500°N, 73.5833°W)
Time: 11:01:33
(UTC-04:00)
Language:

Cosmos 1674 Rocket - Orbit

View from above orbital plane
View from above orbital plane
View from above satellite
View from above satellite

Ground track
Ground track

The orbit data is extracted from the following two-line orbital elements,

1 15945U 85069B   16120.18761166  .00000131  00000-0  12831-4 0  9992
2 15945  82.5273 160.7148 0019126 204.1501 155.8820 14.83850455659633
Epoch (UTC): 29 April 2016 04:30:09
Eccentricity: 0.0019126
inclination: 82.5273°
perigee height: 604 km
apogee height: 630 km
right ascension of ascending node: 160.7148°
argument of perigee: 204.1501°
revolutions per day: 14.83850455
mean anomaly at epoch: 155.8820°
orbit number at epoch: 65963

The dashed part of the orbit path shows where the satellite is in the earth's shadow,  

DLR